Regional Weather Roundup
Issued by NWS

Home | Current Version | Previous Version | Text Only | Print | Product List | Glossary Off
Versions: 1 2 3 4 5 6 7 8 9 10 11 12 13 14 15 16 17 18 19 20 21 22 23 24 25 26 27

000
ASUS45 KBOU 290007
RWRCO

WEATHER ROUNDUP FOR COLORADO
NATIONAL WEATHER SERVICE DENVER/BOULDER CO
600 PM MDT SAT MAY 28 2016

NOTE: "FAIR" INDICATES FEW OR NO CLOUDS BELOW 12000 FEET WITH NO
SIGNIFICANT WEATHER AND/OR OBSTRUCTIONS TO VISIBILITY.

COZ001>005-013-030-031-290100-
...NORTHWEST COLORADO...

CITY           SKY/WX    TMP DP  RH WIND       PRES   REMARKS
CRAIG          FAIR      67  37  33 W9        30.09R
HAYDEN         FAIR      64  34  32 W12       30.10S
MEEKER         CLOUDY    63  35  35 N7        30.11R
MOUNT WERNER   NOT AVBL
STEAMBOAT SPGS FAIR      63  30  28 W12       30.12R
WALDEN         NOT AVBL
$$

COZ006>008-011-290100-
...WEST CENTRAL VALLEYS...

CITY           SKY/WX    TMP DP  RH WIND       PRES   REMARKS
GRAND JUNCTION FAIR      75  32  20 VRB3      29.99F
MONTROSE       FAIR      72  27  18 E3        30.06F
EAGLE          MOSUNNY   63  30  29 NW14G21   30.14R
RIFLE          FAIR      68  33  27 E8        30.07R
DELTA          FAIR      78  24  13 N7        30.02S
NUCLA          FAIR      72  23  16 NW3       30.09S
$$

COZ017>023-064>068-290100-
...SOUTHWEST COLORADO...

CITY           SKY/WX    TMP DP  RH WIND       PRES   REMARKS
DURANGO        FAIR      70  18  13 NW9       30.10S
CORTEZ         FAIR      74  19  12 MISG      30.06S
PAGOSA SPRINGS FAIR      64  27  25 NW7G16    30.19S
TELLURIDE      FAIR      56  28  33 SE7       30.26F
WOLF CREEK PAS FAIR      37  23  56 SW17      30.43R
$$

COZ009-010-012-014-032>034-037-058>063-290100-
...CENTRAL COLORADO...

CITY           SKY/WX    TMP DP  RH WIND       PRES   REMARKS
ASPEN          PTSUNNY   57  32  38 W14G20    30.19R
BUENA VISTA    FAIR      63  20  18 W18G25    30.16R
COPPER MTN     NOT AVBL
BERTHOUD PASS  FAIR      32  25  74 W20       30.38S WCI  20
COTTONWOOD PAS FAIR      61  18  18 NW3       30.27R
GUNNISON       FAIR      63  25  23 NE7       30.17R
KREMMLING      LGT RAIN  55  34  44 E7        30.17S
LEADVILLE      PTSUNNY   49  25  39 CALM      30.28R
MONARCH PASS   PTSUNNY   41  23  48 SW12      30.48R
SALIDA         PTSUNNY   63  31  30 S24G32    30.20R
SUNLIGHT       FAIR      45  30  57 SW3       30.36S
WILKERSON PASS LGT SNOW  41  28  60 S6        30.36S
$$

COZ069>075-290100-
...SAN LUIS VALLEY/SANGRE DE CRISTO MOUNTAINS...

CITY           SKY/WX    TMP DP  RH WIND       PRES   REMARKS
ALAMOSA        FAIR      63  32  31 SE8       30.16S
LA VETA PASS   LGT RAIN  45  32  61 SW5G16    30.33R
SAGUACHE       FAIR      59  32  36 W9        30.21R
$$

COZ035-036-038>040-290100-
...NORTHERN COLORADO FRONT RANGE...

CITY           SKY/WX    TMP DP  RH WIND       PRES   REMARKS
DENVER INTL AP PTSUNNY   59  43  55 E17       30.05S
DMNS CITY PARK   N/A     65  40  39 E24       30.05R
AURORA         PTSUNNY   62  46  54 E18       30.07R
FRONT RANGE AP PTSUNNY   55  46  71 E9        30.08F
ERIE MUNI ARPT FAIR      68  38  33 CALM      30.03R
BOULDER MUN AP FAIR      68  32  26 W7        30.01F
CENTENNIAL     FAIR      64  40  41 NE8       30.05R
BROOMFIELD     PTSUNNY   66  39  37 CALM      30.05R
FORT COLLINS   FAIR      73  43  33 N7        30.02R
LONGMONT       FAIR      72  41  32 E8        30.03R
$$

COZ041-046-047-076>085-087-088-290100-
...PIKES PEAK/PALMER DIVIDE AND SOUTHERN FOOTHILLS...

CITY           SKY/WX    TMP DP  RH WIND       PRES   REMARKS
COLO. SPRINGS  FAIR      66  36  32 S18       30.09S
A. F. ACADEMY  FAIR      63  36  36 S17       30.08S
SCHRIEVER AFB  NOT AVBL
ELLICOTT       FAIR     N/A N/A N/A SW6       30.08S
FALCON         FAIR      64  34  32 S14G21    30.13R
FORT CARSON    FAIR      65  41  41 S15       30.07S
LIMON          FAIR      63  44  50 S14       30.08S
MONUMENT HILL  FAIR      61  37  41 S10       30.12S
TRINIDAD       FAIR      68  34  28 SE9       30.07S
$$

COZ042>045-048>051-090-091-290100-
...NORTHEAST COLORADO...

CITY           SKY/WX    TMP DP  RH WIND       PRES   REMARKS
GREELEY ARPT   PTSUNNY   70  41  35 SE9       30.02R
AKRON          CLOUDY    69  43  38 CALM      30.02R
BURLINGTON     FAIR      73  41  31 S12       30.02R
WRAY           FAIR      70  46  43 NW8       29.98R
STERLING       FAIR      72  48  43 SW5       29.98S
HOLYOKE        FAIR      73  52  46 W3        29.97S
FORT MORGAN    FAIR      65  49  55 NE5       30.03R
$$

COZ086-089-092>099-290100-
...SOUTHEAST COLORADO...

CITY           SKY/WX    TMP DP  RH WIND       PRES   REMARKS
PUEBLO         FAIR      73  40  30 E10       30.00F
LA JUNTA       FAIR      79  38  22 N6        30.00R
LAMAR          FAIR      78  47  33 E16G22    29.96S
SPRINGFIELD      N/A     64  45  49 SW22G38   30.05R
$$




USA.gov is the U.S. government's official web portal to all federal, state and local government web resources and services.